Location: Unspecified
(0.0000°N, 0.0000°E)
Time: 17:33:25
(UTC+02:00)

Cosmos 1892 Rocket - Visible Passes

Search period start: 31 July 2014 00:00
Search period end: 10 August 2014 00:00
Orbit: 609 x 634 km, 82.5° (Epoch: 30 July)

Date Brightness Start Highest point End Pass type
(mag) Time Alt. Az. Time Alt. Az. Time Alt. Az.
04 Aug 5.9 22:00:35 10° N 22:01:16 14° N 22:01:16 14° N visible
05 Aug 5.8 22:18:40 10° NNW 22:20:03 20° NNW 22:20:03 20° NNW visible
06 Aug 6.2 22:37:30 10° NW 22:38:54 17° NW 22:38:54 17° NW visible
07 Aug 4.7 21:17:50 10° NNE 21:20:35 25° ENE 21:20:35 25° ENE visible
08 Aug 3.4 21:35:20 10° N 21:39:38 67° ENE 21:39:38 67° ENE visible
09 Aug 4.4 21:53:34 10° NNW 21:57:49 49° W 21:58:48 41° SW visible
